Change the Weather History Date:

Tuesday, March 19, 2013

  Actual Average Record
Temperature  
Mean Temperature 45 °F 47 °F  
Max Temperature 55 °F 54 °F 63 °F (1951)
Min Temperature 35 °F 40 °F 27 °F (1965)
Degree Days  
Heating Degree Days 20 18  
Month to date heating degree days 336 365  
Since 1 July heating degree days 3477 3619  
Cooling Degree Days 0 0  
Month to date cooling degree days 0 0  
Year to date cooling degree days 0 0  
Moisture  
Dew Point 35 °F    
Average Humidity 60    
Maximum Humidity 85    
Minimum Humidity 35    
Precipitation  
Precipitation 0.46 in 0.11 in 1.27 in (1997)
Month to date precipitation 1.94 2.34  
Year to date precipitation 7.68 11.41  
Snow  
Snow 0.00 in - 0.70 in (1966)
Month to date snowfall 0.0  
Since 1 July snowfall 0.6  
Snow Depth 0.00 in    
Sea Level Pressure  
Sea Level Pressure 29.97 in    
Wind  
Wind Speed 8 mph (ENE)    
Max Wind Speed 17 mph    
Max Gust Speed 23 mph    
Visibility 10 miles    
Events Rain    
T = Trace of Precipitation, MM = Missing Value Source: NWS Daily Summary

Daily Weather History Graph

Daily Weather History Graph

Search for Another Location

Airport or City:

Trip Planner

Search our weather history database for the weather conditions in past years. The results will help you decide how hot, cold, wet, or windy it might be!

Date:

Astronomy

Mar. 19, 2013 Rise Set
Actual Time 7:13 AM PDT 7:21 PM PDT
Civil Twilight 6:42 AM PDT 7:51 PM PDT
Nautical Twilight 6:06 AM PDT 8:27 PM PDT
Astronomical Twilight 5:29 AM PDT 9:04 PM PDT
Moon 11:45 AM PDT (3/19) 2:34 AM PDT (3/19)
Length of Visible Light 13h 08m
Length of Day
12h 07m
Waxing Crescent, 51% of the Moon is Illuminated
Mar 19
Waxing Crescent
Mar 27
Full
Apr 2
Last Quarter
Apr 10
New
Apr 18
First Quarter

Hourly Weather History & Observations

Time (PDT) Temp. Windchill Dew Point Humidity Pressure Visibility Wind Dir Wind Speed Gust Speed Precip Events Conditions
12:53 AM 39.9 °F 35.8 °F 32.0 °F 73% 30.24 in 10.0 mi ENE 5.8 mph - N/A   Clear
1:53 AM 37.0 °F 33.3 °F 30.9 °F 79% 30.22 in 10.0 mi North 4.6 mph - N/A   Clear
2:53 AM 37.9 °F 32.7 °F 33.1 °F 83% 30.21 in 10.0 mi North 6.9 mph - N/A   Clear
3:53 AM 37.9 °F 32.1 °F 33.1 °F 83% 30.18 in 10.0 mi NE 8.1 mph - N/A   Clear
4:53 AM 37.9 °F 32.7 °F 33.1 °F 83% 30.15 in 10.0 mi NNE 6.9 mph - N/A   Clear
5:53 AM 37.0 °F 31.6 °F 32.0 °F 82% 30.13 in 10.0 mi North 6.9 mph - N/A   Mostly Cloudy
6:53 AM 37.0 °F 31.6 °F 30.9 °F 79% 30.11 in 10.0 mi North 6.9 mph - N/A   Overcast
7:53 AM 39.0 °F 36.8 °F 30.9 °F 73% 30.09 in 10.0 mi ENE 3.5 mph - N/A   Overcast
8:53 AM 41.0 °F 37.1 °F 32.0 °F 70% 30.08 in 10.0 mi NNE 5.8 mph - N/A   Overcast
9:53 AM 43.0 °F 39.5 °F 33.1 °F 68% 30.07 in 10.0 mi North 5.8 mph - N/A   Overcast
10:53 AM 48.0 °F - 30.9 °F 52% 30.05 in 10.0 mi NNE 3.5 mph - N/A   Overcast
11:53 AM 52.0 °F - 28.0 °F 40% 30.03 in 10.0 mi ESE 4.6 mph - N/A   Overcast
12:53 PM 55.0 °F - 28.9 °F 37% 30.00 in 10.0 mi Variable 3.5 mph - N/A   Overcast
1:53 PM 50.0 °F - 33.1 °F 52% 29.98 in 10.0 mi SW 4.6 mph - N/A   Overcast
2:53 PM 48.9 °F - 36.0 °F 61% 29.95 in 10.0 mi West 3.5 mph - 0.00 in Rain Light Rain
3:53 PM 51.1 °F - 36.0 °F 56% 29.94 in 9.0 mi East 9.2 mph 19.6 mph 0.00 in Rain Light Rain
4:53 PM 48.0 °F - 39.0 °F 71% 29.91 in 7.0 mi SE 9.2 mph - 0.03 in Rain Light Rain
5:53 PM 46.9 °F - 41.0 °F 80% 29.88 in 7.0 mi ESE 9.2 mph - 0.04 in Rain Light Rain
6:53 PM 44.1 °F 37.7 °F 39.0 °F 82% 29.84 in 6.0 mi East 12.7 mph - 0.05 in Rain Light Rain
7:53 PM 44.1 °F 37.4 °F 39.0 °F 82% 29.79 in 10.0 mi ESE 13.8 mph - 0.04 in Rain Light Rain
8:53 PM 44.1 °F 38.1 °F 39.0 °F 82% 29.73 in 9.0 mi ESE 11.5 mph - 0.09 in Rain Light Rain
9:53 PM 44.1 °F 37.1 °F 37.9 °F 79% 29.69 in 10.0 mi ESE 15.0 mph - 0.01 in   Overcast
10:53 PM 45.0 °F 39.7 °F 37.9 °F 76% 29.65 in 10.0 mi ESE 10.4 mph - 0.03 in Rain Light Rain
11:53 PM 45.0 °F 39.7 °F 39.0 °F 80% 29.62 in 10.0 mi ESE 10.4 mph - 0.05 in Rain Light Rain